Location: Borovka
(49.7741°N, 14.5280°E)
Time: 07:16:28
(UTC+00:00)

Meteor 2-1 Rocket - Pass Details

Date: 17 November 2025
Orbit: 822 x 912 km, 81.3° (Epoch: 12 December)

Event Time Altitude Azimuth Distance (km) Brightness Sun altitude
Rises 17:50:48 0° 186° (S) 3,502 7.5 -24.7°
Reaches altitude 10° 17:53:13 10° 186° (S) 2,575 6.8 -25.1°
Maximum altitude 17:59:07 81° 100° (E) 927 4.2 -26.1°
Enters shadow 18:02:24 28° 16° (NNE) 1,636 5.5 -26.6°
